Location: Balaclava NSW 2575, Australia
(34.4510°S, 150.4953°E)
Time: 00:54:45
(UTC+10:00)

N. Korean satellite - Visible Passes

Search period start: 16 May 2021 00:00
Search period end: 26 May 2021 00:00
Orbit: 450 x 501 km, 97.2° (Epoch: 14 May)

Date Brightness Start Highest point End Pass type
(mag) Time Alt. Az. Time Alt. Az. Time Alt. Az.
17 May 9.7 18:21:45 10° SW 18:23:31 13° WSW 18:25:17 10° W visible
18 May 9.3 04:50:58 10° N 04:51:02 10° N 04:51:02 10° N visible
18 May 8.8 17:53:24 10° SSW 17:56:37 28° WSW 17:59:49 10° NW visible
19 May 7.1 17:25:54 10° S 17:29:38 67° WSW 17:33:17 10° NNW visible
21 May 9.3 18:05:39 10° SSW 18:08:25 20° WSW 18:11:08 10° WNW visible
22 May 7.9 17:37:52 10° S 17:41:27 44° WSW 17:44:57 10° NNW visible
24 May 9.6 18:18:07 10° SW 18:20:08 14° WSW 18:22:07 10° WNW visible
25 May 8.6 17:49:54 10° S 17:53:12 30° WSW 17:56:26 10° NW visible
